STARLINK-1851 (46783 NORAD) Tracking and Keplerian Element Data

This shows tracking and keplerian element data for the satellite.

Feedback or suggestion? Click here.




ElementValue
Catalog46783
NameSTARLINK-1851
Epoch Orbit179
Epoch Day332.91668981
Epoch Year2020
RAAN352.2401
Inclination53.0548
Eccentricity9.79E-05
Argument of Perigee73.3869
Mean Anonmoly260.7024
Mean Motion15.62671048
Decay Rate0.00108884
L11 46783U 20074AW 20332.91668981 .00108884 00000-0 11829-2 0 9991
L22 46783 53.0548 352.2401 0000979 73.3869 260.7024 15.62671048 1791

Live tracking and technical data element details for STARLINK-1851 (NORAD 46783). STARLINK-1851 can be tracked NOW for your location showing map with azimuth and elevation plus other details from your city location.

Track the satellite on the map from your city or location and see movement details for azimuth, elevation, latitude, longitude, range, height, and movement on the map or in text.







IsCatalogInMostPopularTable: catalog: 46783, numindb: 8
Update: records affected: 1



GetName: 46783 STARLINK-1851

Hit Count: updated at: Sun, 29 Nov 2020 06:56:30 GMT